Home > Weather > Wuhan > Past weeks

Flag for China Past Weather in Wuhan, Hubei, China — Yesterday and Last 2 Weeks

Now
91 °F

Clear.


Feels Like: 111 °F
Forecast: 83 / 97 °F
Wind: 3 mph from South

Location: Wuhan Airport

Current Time: Jul 25, 2016 at 12:48:39 AM

Latest Report: Jul 25, 2016 at 12:00 AM


Visibility: 10 mi

Pressure: 29.71 "Hg

Humidity: 71%

Dew Point: 81 °F

Location of WuhanLocation

Past Weather in Wuhan — Graph

°F

Wuhan Temperature Yesterday

Maximum temperature yesterday: 99 °F (at 2:00 PM)
Minimum temperature yesterday: 88 °F (at 4:00 AM)
Average temperature yesterday: 93 °F

High & Low Weather Summary for the Past Weeks

 TemperatureHumidityPressure
High99 °F (Jul 24, 2:00 PM)100% (Jul 10, 4:00 AM)29.71 "Hg (Jul 10, 4:00 AM)
Low73 °F (Jul 16, 2:00 AM)56% (Jul 13, 6:00 PM)29.45 "Hg (Jul 20, 1:00 AM)
Average86 °F83%29.59 "Hg
* Reported Jul 9 11:00 PM — Jul 24 11:00 PM, Wuhan, Weather by CustomWeather, © 2016

Note: Actual official high and low records may vary slightly from our data, if they occured in-between our weather recording intervals... More about our weather records

Advertising

Wuhan Weather History for the Previous 24 Hours

Scroll right to see more
 ConditionsComfort  
Time TempWeatherWind HumidityBarometerVisibility
11:00 PM
Sun, Jul 24
91 °FClear.6 mph67%29.71 "Hg10 mi
10:00 PM91 °FClear.3 mph67%29.71 "Hg10 mi
9:00 PM91 °FPassing clouds.3 mph71%29.68 "HgN/A
8:00 PM91 °FClear.3 mph71%29.68 "Hg10 mi
7:00 PM93 °FSunny.3 mph71%29.65 "Hg10 mi
6:00 PM95 °FSunny.6 mph63%29.65 "Hg10 mi
5:00 PM97 °FSunny.8 mph56%29.65 "Hg10 mi
4:00 PM97 °FSunny.10 mph60%29.68 "Hg10 mi
3:00 PM97 °FSunny.13 mph60%29.68 "Hg10 mi
2:00 PM99 °FSunny.10 mph57%29.68 "Hg10 mi
1:00 PM97 °FSunny.10 mph60%29.68 "Hg10 mi
12:00 PM97 °FSunny.10 mph60%29.71 "Hg10 mi
11:00 AM95 °FSunny.8 mph63%29.71 "Hg10 mi
10:00 AM95 °FSunny.13 mph60%29.71 "Hg10 mi
9:00 AM93 °FPassing clouds.10 mph63%29.71 "HgN/A
8:00 AM91 °FSunny.8 mph67%29.71 "Hg10 mi
7:00 AM90 °FSunny.6 mph71%29.68 "Hg10 mi
6:00 AM88 °FSunny.6 mph75%29.68 "Hg10 mi
5:00 AM88 °FClear.6 mph75%29.65 "Hg10 mi
4:00 AM88 °FClear.6 mph79%29.65 "Hg10 mi
3:00 AM90 °FClear.6 mph67%29.65 "Hg10 mi
2:00 AM90 °FClear.6 mph67%29.65 "Hg10 mi
1:00 AM90 °FClear.6 mph71%29.65 "Hg10 mi
12:00 AM90 °FClear.6 mph75%29.65 "Hg10 mi
Weather by CustomWeather, © 2016

See weather overviewHow to use our weather pages